Location: Kershaw
(34.5481°N, 80.5823°W)
Time: 17:09:54
(UTC+00:00)

Transit 2A - Pass Details

Date: 11 October 2022
Orbit: 598 x 959 km, 66.7° (Epoch: 06 December)

Event Time Altitude Azimuth Distance (km) Brightness Sun altitude
Rises 09:47:02 0° 357° (N) 3,004 9.1 -20.9°
Reaches altitude 10° 09:51:39 10° 39° (NE) 2,185 8.9 -19.9°
Maximum altitude 09:52:31 10° 49° (NE) 2,176 9.1 -19.8°
Drops below altitude 10° 09:53:23 10° 59° (ENE) 2,223 9.3 -19.6°
Sets 09:58:20 0° 99° (E) 3,263 10.8 -18.6°
